sat.trackr.live / text

‹ back to catalog

STARLINK-5053

NORAD 53913 · 2022-119AD

PAYLOAD ACTIVE UNKNOWN

§ Identity

Operator
Country
US
Launch date
2022-09-24
Launch site
AFETR
Launch vehicle
Mass (kg)
RCS (m²)

Purposes: comms

External: N2YO · Heavens-Above · Gunter

§ Orbital elements

Epoch: 2026-05-24T18:57:38.007072Z

Period
95.44 min
Inclination
53.2160°
Eccentricity
0.0001334
Mean motion
15.08841406 rev/d
Perigee alt
538.8 km
Apogee alt
540.7 km
Semi-major
6,917.9 km
B*
-1.6484e-5
RAAN
332.4748°
Arg perigee
87.5880°
Mean anomaly
272.5265°
Rev number
20,331

§ Raw data

STARLINK-50531 53913U 22119AD  26144.79002323 -.00000550  00000+0 -16484-4 0  99972 53913  53.2160 332.4748 0001334  87.5880 272.5265 15.08841406203313

JSON: /api/v1/satellites/53913 · /tle

For live sub-satellite position, see the globe view (requires WebGL).

§ Visibility from observer

Set your observer location to see the next 7 days of passes ≥ 10°. The values pass through the URL so the page stays shareable.

No JS? Fill the form by hand. The geolocation button needs JavaScript.